User: anonymous   Login
Location: Hokitika
(42.7170°S, 170.9670°E)
Time: 18:22:04
(UTC+13:00)
Language:

COSMOS 2428 - Orbit

View from above orbital plane
View from above orbital plane
View from above satellite
View from above satellite

Ground track
Ground track

The orbit data is extracted from the following two-line orbital elements,

1 31792U 07029A   19078.69110382 -.00000320  00000-0 -14739-3 0  9999
2 31792  70.9552 149.2616 0008558  20.5822 339.5642 14.12528916604513
Epoch (UTC): 19 March 2019 16:35:11
Eccentricity: 0.0008558
inclination: 70.9552°
perigee height: 844 km
apogee height: 857 km
right ascension of ascending node: 149.2616°
argument of perigee: 20.5822°
revolutions per day: 14.12528916
mean anomaly at epoch: 339.5642°
orbit number at epoch: 60451

The dashed part of the orbit path shows where the satellite is in the earth's shadow,  

DLR